Flag for U.S.A. Weather past 2 weeks in Boston, Massachusetts, U.S.A.

55 °F

Passing clouds.

Feels Like: 53 °F
Forecast: 53 / 69 °F
Wind: 8 mph from Northwest

Location: Logan International Airport

Current Time: Oct 7, 2015 at 12:47:21 AM

Latest Report: Oct 6, 2015 at 11:54 PM

Visibility: 10 mi

Pressure: 29.95 "Hg

Humidity: 69%

Dew point: 45 °F

Location of BostonLocation

Historic Weather in Boston — Graph


Boston temperature yesterday

Maximum temperature yesterday: 64 °F (at 1:54 PM)
Minimum temperature yesterday: 48 °F (at 6:54 AM)
Average temperature yesterday: 56 °F

Past Weeks' High & Low Weather Summary

High83 °F (Sep 29, 12:54 PM)100% (Sep 29, 3:54 AM)30.53 "Hg (Sep 29, 3:54 AM)
Low48 °F (Sep 27, 6:54 AM)41% (Sep 23, 10:54 AM)29.64 "Hg (Sep 30, 11:54 AM)
Average60 °F73%30.24 "Hg
* Reported Sep 21 10:54 PM — Oct 6 10:54 PM, Boston, Weather by CustomWeather, © 2015

Note: Actual official high and low records may vary slightly from our data, if they occured in-between our weather recording intervals... More about our weather records


Boston weather history for previous 24 hours

Time TempWeatherWind HumidityBarometerVisibility
10:54 PM
Tue, Oct 6
57 °FPassing clouds.7 mph62%29.95 "Hg10 mi
9:54 PM58 °FPassing clouds.3 mph60%29.96 "Hg10 mi
8:54 PM56 °FPassing clouds.No wind67%29.96 "Hg10 mi
7:54 PM57 °FPassing clouds.No wind64%29.95 "Hg10 mi
6:54 PM57 °FScattered clouds.No wind64%29.94 "Hg10 mi
5:54 PM58 °FScattered clouds.7 mph65%29.93 "Hg10 mi
4:54 PM59 °FScattered clouds.9 mph67%29.93 "Hg10 mi
3:54 PM61 °FScattered clouds.9 mph60%29.93 "Hg10 mi
2:54 PM62 °FScattered clouds.9 mph58%29.94 "Hg10 mi
1:54 PM64 °FPassing clouds.7 mph56%29.96 "Hg10 mi
12:54 PM62 °FPassing clouds.6 mph56%29.98 "Hg10 mi
11:54 AM63 °FPassing clouds.6 mph52%30.01 "Hg10 mi
10:54 AM62 °FPassing clouds.7 mph54%30.02 "Hg10 mi
9:54 AM59 °FPassing clouds.No wind60%30.03 "Hg10 mi
8:54 AM53 °FPassing clouds.3 mph72%30.03 "Hg10 mi
7:54 AM50 °FPassing clouds.5 mph77%30.03 "Hg10 mi
6:54 AM48 °FPassing clouds.6 mph83%30.03 "Hg10 mi
4:54 AM49 °FClear.8 mph86%30.03 "Hg10 mi
3:54 AM50 °FClear.5 mph86%30.03 "Hg10 mi
2:54 AM50 °FPassing clouds.8 mph89%30.05 "Hg10 mi
1:54 AM51 °FPassing clouds.3 mph89%30.07 "Hg10 mi
12:54 AM51 °FPassing clouds.7 mph92%30.07 "Hg10 mi
Weather by CustomWeather, © 2015

See weather overviewHow to use our weather pages